カタログに戻る

STARLINK-35950

運用中通信VLEO
NORAD 66622·PAYLOAD·🇺🇸 United States

打ち上げ Nov 23, 2025 から Vandenberg Space Force Base

Loading…

次のパス (今後24時間)

TLE

最新Source: CelesTrak SupGP

元期: Sep 15, 2026, 03:51 UTC

1 66622C 25271F   26258.16090278  .00062547  00000+0  18471-2 0  2589
2 66622  53.1595 338.4759 0001233  85.3567 329.7066 15.34373891    12

AllMySatでSTARLINK-35950をリアルタイム追跡

Download on the App Store